FW5236 Weather Reports


time (UTC)temp
C
wind
direction
speed
KPH
gust
KPH
rain 1hr
cm
rain 24hr
cm
rain mn
cm
humidity
%
barometer
mb
20260503053028 16 225 0.0 3.2 0.00 0.00 0.00 57 1016.5
20260503050033 17 225 3.2 8.0 0.00 0.00 0.00 49 1016.4
20260503044530 18 248 1.6 6.4 0.00 0.00 0.00 48 1016.3
20260503043033 18 256 3.2 6.4 0.00 0.00 0.00 46 1016.3
20260503041529 18 300 3.2 9.7 0.00 0.00 0.00 51 1016.3
20260503040039 17 241 1.6 4.8 0.00 0.00 0.00 54 1016.2
20260503034528 18 230 1.6 6.4 0.00 0.00 0.00 51 1016.0
20260503033031 19 274 3.2 9.7 0.00 0.00 0.00 53 1015.7
20260503031529 19 176 1.6 4.8 0.00 0.00 0.00 57 1015.2
20260503030032 19 135 0.0 0.0 0.00 0.00 0.00 58 1014.8
20260503024528 20 135 0.0 0.0 0.00 0.00 0.00 59 1014.5
20260503023027 21 135 0.0 0.0 0.00 0.00 0.00 58 1014.4
20260503014529 26 135 0.0 0.0 0.00 0.00 0.00 40 1014.1
20260503013108 27 135 0.0 0.0 0.00 0.00 0.00 35 1014.0
20260503011532 28 145 0.0 1.6 0.00 0.00 0.00 31 1013.9
20260503000031 28 118 3.2 11.3 0.00 0.00 0.00 31 1014.2
20260502234645 28 126 3.2 8.0 0.00 0.00 0.00 32 1014.4
20260502233033 28 114 1.6 8.0 0.00 0.00 0.00 34 1014.5
20260502230031 28 130 1.6 6.4 0.00 0.00 0.00 33 1014.9
20260502224603 28 89 1.6 6.4 0.00 0.00 0.00 34 1015.2
20260502223107 28 109 1.6 4.8 0.00 0.00 0.00 34 1015.4
20260502221527 28 78 1.6 6.4 0.00 0.00 0.00 35 1015.6
20260502220036 27 77 1.6 4.8 0.00 0.00 0.00 37 1015.8
20260502213027 26 126 1.6 6.4 0.00 0.00 0.00 36 1016.3
20260502210107 27 123 0.0 4.8 0.00 0.00 0.00 36 1016.5
20260502204531 27 93 1.6 6.4 0.00 0.00 0.00 39 1016.5
20260502203031 26 66 0.0 4.8 0.00 0.00 0.00 40 1016.7
20260502194528 23 53 1.6 6.4 0.00 0.00 0.00 51 1017.2
20260502191529 21 50 1.6 8.0 0.00 0.00 0.00 59 1017.6
20260502190029 19 36 1.6 11.3 0.00 0.00 0.00 63 1017.8
20260502163030 13 315 0.0 3.2 0.00 0.00 0.00 81 1018.5
20260502151531 11 296 0.0 8.0 0.00 0.00 0.00 84 1018.2
20260502123037 11 225 0.0 3.2 0.00 0.00 0.00 80 1016.6
20260502121608 11 246 1.6 4.8 0.00 0.00 0.00 80 1016.7
20260502114532 12 271 1.6 6.4 0.00 0.00 0.00 79 1016.7
20260502111529 11 179 1.6 9.7 0.00 0.00 0.00 81 1016.5
20260502110038 11 185 0.0 4.8 0.00 0.00 0.00 81 1016.8
20260502104530 11 214 0.0 3.2 0.00 0.00 0.00 82 1017.1
20260502103105 11 228 1.6 4.8 0.00 0.00 0.00 81 1017.1
20260502101531 11 159 0.0 3.2 0.00 0.00 0.00 82 1016.9
20260502091532 12 251 0.0 4.8 0.00 0.00 0.00 74 1017.0
20260502071530 12 228 0.0 6.4 0.00 0.00 0.00 74 1017.4
20260502064531 12 229 1.6 6.4 0.00 0.00 0.00 74 1017.4
20260502063033 12 247 0.0 3.2 0.00 0.00 0.00 75 1017.3
20260502060035 13 267 0.0 3.2 0.00 0.00 0.00 72 1017.1